Location: Newark
(44.3681°N, 100.3364°W)
Time: 14:55:05
(UTC+00:00)

Explorer 7 - Pass Details

Date: 23 February 2020
Orbit: 485 x 679 km, 50.3° (Epoch: 05 April)

Event Time Altitude Azimuth Distance (km) Brightness Sun altitude
Rises 21:18:06 0° 286° (WNW) 2,890 10.8 26.9°
Reaches altitude 10° 21:20:37 10° 294° (WNW) 1,950 9.9 26.6°
Maximum altitude 21:24:46 37° 3° (N) 906 7.8 26.1°
Drops below altitude 10° 21:28:41 10° 72° (ENE) 1,832 9.1 25.6°
Sets 21:30:58 0° 80° (E) 2,691 9.9 25.4°
